sat.trackr.live / text

‹ back to catalog

STARLINK-2426

NORAD 47836 · 2021-018BB

PAYLOAD ACTIVE UNKNOWN

§ Identity

Operator
Country
US
Launch date
2021-03-11
Launch site
AFETR
Launch vehicle
Mass (kg)
RCS (m²)

Purposes: comms

External: N2YO · Heavens-Above · Gunter

§ Orbital elements

Epoch: 2026-09-20T01:53:23.307072Z

Period
94.01 min
Inclination
53.1596°
Eccentricity
0.0000835
Mean motion
15.31704397 rev/d
Perigee alt
470.2 km
Apogee alt
471.3 km
Semi-major
6,848.9 km
B*
-1.7031e-5
RAAN
60.3492°
Arg perigee
116.6036°
Mean anomaly
243.5051°
Rev number
30,648

§ Raw data

STARLINK-24261 47836U 21018BB  26263.07874198 -.00000893  00000+0 -17031-4 0  99902 47836  53.1596  60.3492 0000835 116.6036 243.5051 15.31704397306483

JSON: /api/v1/satellites/47836 · /tle

For live sub-satellite position, see the globe view (requires WebGL).

§ Visibility from observer

Set your observer location to see the next 7 days of passes ≥ 10°. The values pass through the URL so the page stays shareable.

No JS? Fill the form by hand. The geolocation button needs JavaScript.